Location: Campillo
(40.8621°N, 4.2488°W)
Time: 00:01:10
(UTC+00:00)

USA 245 - Pass Details

Date: 03 October 2021
Orbit: 268 x 1012 km, 97.9° (Epoch: 15 October)

Event Time Altitude Azimuth Distance (km) Brightness Sun altitude
Exits shadow 21:02:36 16° 4° (N) 2,012 6.3 -35.1°
Drops below altitude 10° 21:03:51 10° 359° (N) 2,480 6.9 -35.3°
Sets 21:06:34 0° 354° (N) 3,523 7.9 -35.7°
